Location: Ashton River Estates
(39.1762°N, 77.0261°W)
Time: 22:51:54
(UTC+00:00)

Cosmos 1076 Rocket - Pass Details

Date: 29 October 2020
Orbit: 589 x 612 km, 82.5° (Epoch: 02 December)

Event Time Altitude Azimuth Distance (km) Brightness Sun altitude
Rises 23:19:10 0° 1° (N) 2,831 6.9 -13.9°
Reaches altitude 10° 23:21:31 10° 10° (N) 1,927 5.9 -14.4°
Maximum altitude 23:25:28 36° 78° (ENE) 937 3.9 -15.2°
Drops below altitude 10° 23:29:24 10° 146° (SE) 1,921 5.8 -15.9°
Sets 23:31:44 0° 155° (SSE) 2,822 6.7 -16.4°
